sat.trackr.live / text

‹ back to catalog

STARLINK-5821

NORAD 57069 · 2023-088X

PAYLOAD ACTIVE UNKNOWN

§ Identity

Operator
Country
US
Launch date
2023-06-22
Launch site
AFWTR
Launch vehicle
Mass (kg)
RCS (m²)

Purposes: comms

External: N2YO · Heavens-Above · Gunter

§ Orbital elements

Epoch: 2026-09-19T20:59:50.146944Z

Period
94.27 min
Inclination
43.0040°
Eccentricity
0.0001301
Mean motion
15.27576504 rev/d
Perigee alt
482.2 km
Apogee alt
484.0 km
Semi-major
6,861.2 km
B*
9.0363e-6
RAAN
79.8817°
Arg perigee
259.9522°
Mean anomaly
100.1183°
Rev number
18,002

§ Raw data

STARLINK-58211 57069U 23088X   26262.87488596 -.00000013  00000+0  90363-5 0  99912 57069  43.0040  79.8817 0001301 259.9522 100.1183 15.27576504180026

JSON: /api/v1/satellites/57069 · /tle

For live sub-satellite position, see the globe view (requires WebGL).

§ Visibility from observer

Set your observer location to see the next 7 days of passes ≥ 10°. The values pass through the URL so the page stays shareable.

No JS? Fill the form by hand. The geolocation button needs JavaScript.